Location: Newark
(36.1358°N, 115.1208°W)
Time: 12:30:48
(UTC+00:00)

ISS - Pass Details

Date: 03 October 2021
Orbit: 417 x 423 km, 51.6° (Epoch: 20 October)

Event Time Altitude Azimuth Distance (km) Brightness Sun altitude
Rises 02:55:24 0° 319° (NW) 2,363 0.9 -19.6°
Reaches altitude 10° 02:57:39 10° 330° (NNW) 1,497 -0.4 -20.1°
Enters shadow 02:59:54 27° 7° (N) 846 -2.2 -20.5°
